Weather History for KICT - January, 2013

Change the Weather History Date:

Tuesday, January 29, 2013

  Actual Average Record
Temperature  
Mean Temperature 50 °F 33 °F  
Max Temperature 65 °F 44 °F 70 °F (1971)
Min Temperature 35 °F 22 °F -3 °F (1966)
Degree Days  
Heating Degree Days 15 32  
Month to date heating degree days 811 950  
Since 1 July heating degree days 2375 2793  
Cooling Degree Days 0 0  
Month to date cooling degree days 0 0  
Year to date cooling degree days 0 0  
Moisture  
Dew Point 38 °F    
Average Humidity 82    
Maximum Humidity 93    
Minimum Humidity 70    
Precipitation  
Precipitation 0.02 in 0.03 in 1.51 in (1982)
Month to date precipitation 0.56 0.76  
Year to date precipitation 0.56 0.76  
Snow  
Snow 0.00 in 0.10 in 2.80 in (1979)
Month to date snowfall 0.7 3.3  
Since 1 July snowfall 3.2 8.9  
Snow Depth 0.00 in    
Sea Level Pressure  
Sea Level Pressure 29.61 in    
Wind  
Wind Speed 13 mph (NNW)    
Max Wind Speed 21 mph    
Max Gust Speed 25 mph    
Visibility 8 miles    
Events Rain    
T = Trace of Precipitation, MM = Missing Value Source: NWS Daily Summary

Daily Weather History Graph

Daily Weather History Graph

Search for Another Location

Airport or City:

Trip Planner

Search our weather history database for the weather conditions in past years. The results will help you decide how hot, cold, wet, or windy it might be!

Date:

Astronomy

Jan. 29, 2013 Rise Set
Actual Time 7:35 AM CST 5:50 PM CST
Civil Twilight 7:07 AM CST 6:18 PM CST
Nautical Twilight 6:36 AM CST 6:49 PM CST
Astronomical Twilight 6:05 AM CST 7:20 PM CST
Moon 8:43 PM CST (1/29) 8:37 AM CST (1/29)
Length of Visible Light 11h 10m
Length of Day
10h 14m
Waning Gibbous, 93% of the Moon is Illuminated
Jan 29
Waning Gibbous
Feb 3
Last Quarter
Feb 10
New
Feb 17
First Quarter
Feb 25
Full

Hourly Weather History & Observations

Time (CST) Temp. Windchill Dew Point Humidity Pressure Visibility Wind Dir Wind Speed Gust Speed Precip Events Conditions
12:53 AM 64.0 °F - 59.0 °F 84% 29.62 in 9.0 mi South 18.4 mph - N/A   Overcast
1:53 AM 64.0 °F - 59.0 °F 84% 29.60 in 9.0 mi SSW 15.0 mph - N/A   Overcast
2:53 AM 62.1 °F - 57.0 °F 84% 29.60 in 9.0 mi South 15.0 mph - N/A   Mostly Cloudy
3:53 AM 61.0 °F - 57.0 °F 87% 29.61 in 8.0 mi SSW 15.0 mph - N/A   Mostly Cloudy
4:51 AM 46.4 °F 40.7 °F 41.0 °F 81% 29.64 in 10.0 mi NNW 12.7 mph - N/A   Mostly Cloudy
4:53 AM 46.9 °F - 41.0 °F 80% 29.63 in 10.0 mi NNW 10.4 mph - N/A   Mostly Cloudy
5:53 AM 41.0 °F 32.8 °F 37.9 °F 89% 29.63 in 9.0 mi NNW 16.1 mph - N/A   Mostly Cloudy
6:12 AM 41.0 °F 33.5 °F 37.4 °F 87% 29.65 in 9.0 mi NNW 13.8 mph - N/A   Overcast
6:25 AM 41.0 °F 32.8 °F 37.4 °F 87% 29.64 in 8.0 mi NNW 16.1 mph 23.0 mph N/A   Overcast
6:53 AM 39.9 °F 32.1 °F 37.0 °F 89% 29.66 in 8.0 mi NNW 13.8 mph - N/A   Overcast
7:31 AM 39.2 °F 29.8 °F 37.4 °F 93% 29.67 in 6.0 mi NNW 18.4 mph - 0.02 in Rain Rain
7:53 AM 39.9 °F 33.4 °F 37.9 °F 93% 29.63 in 10.0 mi North 10.4 mph - 0.02 in   Mostly Cloudy
8:53 AM 39.9 °F 32.1 °F 37.9 °F 93% 29.62 in 6.0 mi North 13.8 mph - N/A   Overcast
9:00 AM 39.2 °F 31.6 °F 37.4 °F 93% 29.64 in 6.0 mi NNE 12.7 mph - N/A   Overcast
9:53 AM 41.0 °F 34.3 °F 39.0 °F 93% 29.60 in 7.0 mi NE 11.5 mph - N/A   Overcast
10:53 AM 41.0 °F 34.3 °F 39.0 °F 93% 29.63 in 8.0 mi North 11.5 mph - N/A   Overcast
11:53 AM 42.1 °F 35.2 °F 37.0 °F 82% 29.59 in 8.0 mi North 12.7 mph - N/A   Overcast
12:53 PM 42.1 °F 34.9 °F 35.1 °F 76% 29.56 in 7.0 mi NNW 13.8 mph - N/A   Overcast
1:14 PM 42.8 °F 34.8 °F 35.6 °F 76% 29.55 in 8.0 mi North 17.3 mph - N/A   Overcast
1:53 PM 42.1 °F 34.9 °F 34.0 °F 73% 29.52 in 8.0 mi North 13.8 mph 23.0 mph N/A   Overcast
2:53 PM 41.0 °F 34.3 °F 33.1 °F 73% 29.57 in 8.0 mi NNW 11.5 mph - N/A   Overcast
3:53 PM 41.0 °F 33.9 °F 33.1 °F 73% 29.55 in 9.0 mi North 12.7 mph - N/A   Overcast
4:53 PM 39.9 °F 32.5 °F 32.0 °F 73% 29.61 in 10.0 mi North 12.7 mph - N/A   Overcast
5:53 PM 37.9 °F 30.0 °F 32.0 °F 79% 29.60 in 9.0 mi North 12.7 mph - N/A   Overcast
6:53 PM 37.9 °F 30.5 °F 32.0 °F 79% 29.59 in 9.0 mi North 11.5 mph - N/A   Overcast
7:53 PM 37.9 °F 30.5 °F 30.9 °F 76% 29.60 in 8.0 mi NNW 11.5 mph - N/A   Overcast
8:53 PM 37.0 °F 29.3 °F 30.9 °F 79% 29.63 in 8.0 mi NW 11.5 mph - N/A   Overcast
9:53 PM 37.0 °F 28.1 °F 33.1 °F 86% 29.63 in 6.0 mi NW 15.0 mph - 0.00 in   Light Drizzle
10:25 PM 35.6 °F 27.1 °F 33.8 °F 93% 29.61 in 3.0 mi NNW 12.7 mph - 0.00 in   Light Drizzle
10:36 PM 35.6 °F 26.6 °F 33.8 °F 93% 29.62 in 3.0 mi NW 13.8 mph - 0.00 in   Light Drizzle
10:53 PM 35.1 °F 25.5 °F 34.0 °F 96% 29.65 in 3.0 mi NNW 15.0 mph 23.0 mph 0.00 in   Light Drizzle
11:53 PM 35.1 °F 25.5 °F 33.1 °F 92% 29.65 in 5.0 mi NNW 15.0 mph - 0.00 in   Light Drizzle